When you browse on this site, cookies collect data to enhance your experience and personalize the content and advertising you see.
Visit our Privacy Policy to learn more. By continuing to use the site, you agree to this use of cookies and data.
  • En España
  • Lista de países
  • Para 7 días
  • Temperatura del agua
  • Mapa Satelital
  • El tiempo en el mapa
  • Informadores
  • user-avatar
    Iniciar sesión

    Tiempo cada hora Santiago del Estero

    Hoy, 23 Enero, Miércoles

    Tiempo Temperatura Precipitaciones Viento Presión Humedad
    00:00 +33°C° 0 mm 3 mps 738 mmHg 48%
    01:00 +31°C° 0 mm 3 mps 738 mmHg 50%
    02:00 +31°C° 0 mm 3 mps 738 mmHg 52%
    03:00 +30°C° 0 mm 3 mps 738 mmHg 52%
    04:00 +30°C° 0 mm 3 mps 738 mmHg 53%
    05:00 +30°C° 0 mm 3 mps 738 mmHg 53%
    06:00 +32°C° 0 mm 4 mps 739 mmHg 53%
    07:00 +32°C° 0 mm 4 mps 739 mmHg 53%
    08:00 +33°C° 0 mm 5 mps 740 mmHg 52%
    09:00 +35°C° 0 mm 5 mps 740 mmHg 48%
    10:00 +38°C° 0 mm 6 mps 740 mmHg 43%
    11:00 +40°C° 0 mm 6 mps 740 mmHg 38%
    12:00 +41°C° 0 mm 6 mps 740 mmHg 36%
    13:00 +42°C° 0 mm 6 mps 739 mmHg 34%
    14:00 +44°C° 0 mm 6 mps 739 mmHg 32%
    15:00 +43°C° 0 mm 5 mps 738 mmHg 32%
    16:00 +43°C° 0 mm 5 mps 737 mmHg 32%
    17:00 +43°C° 0 mm 4 mps 737 mmHg 32%
    18:00 +40°C° 0 mm 3 mps 737 mmHg 35%
    19:00 +38°C° 0 mm 3 mps 737 mmHg 38%
    20:00 +36°C° 0 mm 2 mps 737 mmHg 42%
    21:00 +35°C° 0 mm 2 mps 738 mmHg 44%
    22:00 +35°C° 0 mm 3 mps 738 mmHg 47%
    23:00 +34°C° 0 mm 3 mps 739 mmHg 50%

    Mañana, 24 Enero, Jueves

    Tiempo Temperatura Precipitaciones Viento Presión Humedad
    00:00 +33°C° 0 mm 3 mps 738 mmHg 51%
    01:00 +33°C° 0 mm 3 mps 738 mmHg 52%
    02:00 +32°C° 0 mm 2 mps 738 mmHg 53%
    03:00 +31°C° 0 mm 2 mps 738 mmHg 53%
    04:00 +31°C° 0 mm 3 mps 737 mmHg 53%
    05:00 +31°C° 0 mm 3 mps 737 mmHg 53%
    06:00 +31°C° 0 mm 3 mps 738 mmHg 52%
    07:00 +33°C° 0 mm 3 mps 738 mmHg 51%
    08:00 +34°C° 0 mm 3 mps 739 mmHg 50%
    09:00 +36°C° 0 mm 4 mps 739 mmHg 46%
    10:00 +38°C° 0 mm 4 mps 739 mmHg 41%
    11:00 +41°C° 0 mm 5 mps 740 mmHg 36%
    12:00 +42°C° 0 mm 5 mps 739 mmHg 33%
    13:00 +44°C° 0 mm 6 mps 738 mmHg 31%
    14:00 +45°C° 0 mm 7 mps 737 mmHg 28%
    15:00 +45°C° 0 mm 6 mps 737 mmHg 29%
    16:00 +45°C° 0 mm 5 mps 736 mmHg 29%
    17:00 +44°C° 0 mm 4 mps 735 mmHg 29%
    18:00 +43°C° 0 mm 4 mps 736 mmHg 31%
    19:00 +41°C° 0 mm 4 mps 736 mmHg 33%
    20:00 +38°C° 0 mm 3 mps 736 mmHg 35%
    21:00 +37°C° 0 mm 4 mps 737 mmHg 39%
    22:00 +37°C° 0 mm 5 mps 737 mmHg 43%
    23:00 +36°C° 0 mm 5 mps 738 mmHg 47%

    Pasado mañana, 25 Enero, Viernes

    Tiempo Temperatura Precipitaciones Viento Presión Humedad
    00:00 +35°C° 0 mm 5 mps 737 mmHg 47%
    01:00 +35°C° 0 mm 4 mps 737 mmHg 48%
    02:00 +34°C° 0 mm 3 mps 736 mmHg 49%
    03:00 +34°C° 0 mm 4 mps 736 mmHg 46%
    04:00 +35°C° 0 mm 4 mps 736 mmHg 44%
    05:00 +35°C° 0 mm 5 mps 736 mmHg 41%
    06:00 +35°C° 0 mm 5 mps 736 mmHg 43%
    07:00 +35°C° 0 mm 5 mps 736 mmHg 45%
    08:00 +35°C° 0 mm 4 mps 736 mmHg 46%
    09:00 +37°C° 0 mm 5 mps 737 mmHg 42%
    10:00 +39°C° 0 mm 6 mps 737 mmHg 37%
    11:00 +41°C° 0 mm 6 mps 737 mmHg 33%
    12:00 +43°C° 0 mm 7 mps 736 mmHg 30%
    13:00 +45°C° 0 mm 7 mps 736 mmHg 27%
    14:00 +46°C° 0 mm 8 mps 735 mmHg 25%
    15:00 +46°C° 0 mm 7 mps 735 mmHg 25%
    16:00 +46°C° 0 mm 6 mps 735 mmHg 25%
    17:00 +46°C° 0 mm 6 mps 734 mmHg 25%
    18:00 +43°C° 0 mm 5 mps 734 mmHg 28%
    19:00 +41°C° 0 mm 4 mps 734 mmHg 31%
    20:00 +38°C° 0 mm 3 mps 735 mmHg 34%
    21:00 +37°C° 0 mm 3 mps 735 mmHg 36%
    22:00 +37°C° 0 mm 3 mps 736 mmHg 38%
    23:00 +36°C° 0 mm 3 mps 736 mmHg 40%

    26 Enero, Sábado

    Tiempo Temperatura Precipitaciones Viento Presión Humedad
    00:00 +35°C° 0.1 mm 3 mps 736 mmHg 44%
    01:00 +34°C° 0.1 mm 2 mps 736 mmHg 48%
    02:00 +32°C° 0.1 mm 2 mps 735 mmHg 52%
    03:00 +32°C° 0 mm 2 mps 735 mmHg 52%
    04:00 +33°C° 0 mm 3 mps 736 mmHg 51%
    05:00 +33°C° 0 mm 3 mps 736 mmHg 50%
    06:00 +34°C° 0 mm 3 mps 737 mmHg 49%
    07:00 +35°C° 0 mm 3 mps 738 mmHg 47%
    08:00 +36°C° 0 mm 3 mps 738 mmHg 45%
    09:00 +38°C° 0 mm 3 mps 739 mmHg 40%
    10:00 +41°C° 0 mm 4 mps 739 mmHg 36%
    11:00 +43°C° 0 mm 4 mps 740 mmHg 31%
    12:00 +43°C° 0 mm 4 mps 739 mmHg 30%
    13:00 +44°C° 0 mm 4 mps 739 mmHg 29%
    14:00 +44°C° 0 mm 3 mps 739 mmHg 29%
    15:00 +43°C° 0 mm 4 mps 739 mmHg 34%
    16:00 +41°C° 0 mm 5 mps 739 mmHg 40%
    17:00 +40°C° 0 mm 6 mps 739 mmHg 45%
    18:00 +36°C° 0.1 mm 6 mps 739 mmHg 54%
    19:00 +34°C° 0.1 mm 5 mps 740 mmHg 62%
    20:00 +32°C° 0.1 mm 5 mps 741 mmHg 71%
    21:00 +30°C° 0.1 mm 4 mps 741 mmHg 75%
    22:00 +29°C° 0.1 mm 4 mps 742 mmHg 79%
    23:00 +29°C° 0.1 mm 4 mps 742 mmHg 83%

    27 Enero, Domingo

    Tiempo Temperatura Precipitaciones Viento Presión Humedad
    00:00 +28°C° 0.1 mm 3 mps 742 mmHg 84%
    01:00 +28°C° 0.1 mm 3 mps 741 mmHg 85%
    02:00 +28°C° 0.1 mm 3 mps 741 mmHg 86%
    03:00 +28°C° 1.3 mm 3 mps 741 mmHg 88%
    04:00 +27°C° 1.3 mm 3 mps 741 mmHg 90%
    05:00 +27°C° 1.3 mm 3 mps 741 mmHg 91%
    06:00 +27°C° 1.5 mm 3 mps 741 mmHg 90%
    07:00 +27°C° 1.5 mm 2 mps 741 mmHg 89%
    08:00 +28°C° 1.5 mm 1 mps 742 mmHg 88%
    09:00 +28°C° 0.1 mm 1 mps 742 mmHg 85%
    10:00 +29°C° 0.1 mm 2 mps 742 mmHg 82%
    11:00 +30°C° 0.1 mm 2 mps 742 mmHg 79%
    12:00 +31°C° 0.1 mm 2 mps 741 mmHg 76%
    13:00 +33°C° 0.1 mm 3 mps 741 mmHg 73%
    14:00 +33°C° 0.1 mm 4 mps 740 mmHg 70%
    15:00 +34°C° 0 mm 3 mps 739 mmHg 68%
    16:00 +34°C° 0 mm 3 mps 739 mmHg 65%
    17:00 +34°C° 0 mm 2 mps 738 mmHg 63%
    18:00 +32°C° 0 mm 2 mps 738 mmHg 68%
    19:00 +31°C° 0 mm 3 mps 738 mmHg 73%
    20:00 +30°C° 0 mm 3 mps 739 mmHg 78%
    21:00 +30°C° 0.1 mm 2 mps 739 mmHg 80%
    22:00 +29°C° 0.1 mm 2 mps 739 mmHg 83%
    23:00 +29°C° 0.1 mm 2 mps 740 mmHg 85%

    28 Enero, Lunes

    Tiempo Temperatura Precipitaciones Viento Presión Humedad
    00:00 +29°C° 0.1 mm 2 mps 739 mmHg 86%
    01:00 +29°C° 0.1 mm 2 mps 739 mmHg 87%
    02:00 +28°C° 0.1 mm 1 mps 739 mmHg 88%
    03:00 +28°C° 1.8 mm 1 mps 739 mmHg 89%
    04:00 +28°C° 1.8 mm 1 mps 739 mmHg 90%
    05:00 +28°C° 1.8 mm 1 mps 739 mmHg 91%
    06:00 +28°C° 0.5 mm 1 mps 739 mmHg 88%
    07:00 +29°C° 0.5 mm 2 mps 740 mmHg 86%
    08:00 +30°C° 0.5 mm 2 mps 740 mmHg 83%
    09:00 +31°C° 0.1 mm 2 mps 740 mmHg 74%
    10:00 +34°C° 0.1 mm 3 mps 740 mmHg 66%
    11:00 +36°C° 0.1 mm 3 mps 740 mmHg 57%
    12:00 +37°C° 0 mm 4 mps 739 mmHg 53%
    13:00 +37°C° 0 mm 4 mps 738 mmHg 49%
    14:00 +39°C° 0 mm 5 mps 738 mmHg 45%
    15:00 +39°C° 0 mm 5 mps 737 mmHg 46%
    16:00 +38°C° 0 mm 4 mps 737 mmHg 48%
    17:00 +38°C° 0 mm 4 mps 736 mmHg 50%
    18:00 +36°C° 0 mm 3 mps 736 mmHg 52%
    19:00 +35°C° 0 mm 3 mps 737 mmHg 55%
    20:00 +34°C° 0 mm 2 mps 737 mmHg 58%
    21:00 +32°C° 0 mm 2 mps 737 mmHg 58%
    22:00 +32°C° 0 mm 2 mps 737 mmHg 59%
    23:00 +31°C° 0 mm 2 mps 737 mmHg 60%
    Mostrar más